Regional Weather Roundup
Issued by NWS

Home | Current Version | Previous Version | Text Only | Print | Product List | Glossary On
Versions: 1 2 3 4 5 6 7 8 9 10 11 12 13 14 15 16 17 18 19 20 21 22 23 24 25 26 27 28 29 30 31 32 33 34 35 36 37 38 39 40 41 42 43 44 45 46 47 48 49 50
000
ASHW40 PHFO 280443
RWRHI

WEATHER ROUNDUP FOR HAWAII
NATIONAL WEATHER SERVICE HONOLULU HI
600 PM HST WED JUL 27 2016

THIS IS AN AUTOMATED REPORT THAT HAS NOT BEEN QUALITY CONTROLLED.

NOTE..."FAIR" INDICATES FEW OR NO CLOUDS BELOW 12,000 FEET WITH NO
SIGNIFICANT WEATHER AND/OR OBSTRUCTIONS TO VISIBILITY.

* - THESE SITES REPORT LIMITED FIELDS

HIZ001>004-280500-
KAUAI-NIIHAU-

CITY           SKY/WX    TMP DP  RH WIND       PRES   REMARKS
LIHUE APT      MOSUNNY   82  71  69 NE16      30.02R
PORT ALLEN*      N/A     86 N/A N/A NE18G31     N/A
POIPU*           N/A     84 N/A N/A NE10G21     N/A
PRINCEVILLE*     N/A     81 N/A N/A E9G16       N/A
KOKOLE POINT*  NOT AVBL
MOLOAA DAIRY*    N/A     81  72  74 E3G10       N/A
WAIMEA HTS*      N/A     82  68  61 W5G10       N/A
PUU OPAE*        N/A     77  68  73 W3G12       N/A
PUU LUA*       NOT AVBL
MAKAHA RIDGE*    N/A     81  68  65 SW2         N/A
$$

HIZ005>011-280500-
OAHU-

CITY           SKY/WX    TMP DP  RH WIND       PRES   REMARKS
HONOLULU       PTSUNNY   84  67  56 NE14      29.97R
KALAELOA       MOSUNNY   85  68  56 E12G18    29.97R
KANEOHE MCB    MOSUNNY   81  70  69 E12G18    29.98R
WHEELER FIELD  FAIR      81  70  69 VRB6      30.00
BELLOWS*         N/A    N/A N/A N/A NE21        N/A
KAHUKU*          N/A    N/A N/A N/A VRB13G22    N/A
WHEELER*         N/A    N/A N/A N/A NE2G10      N/A
WAIANAE HARBOR   N/A    N/A N/A N/A N2G12       N/A
DILLINGHAM*      N/A     84  68  58 MISG        N/A
KAHUKU TRN*      N/A     84  75  74 W13G29      N/A  HX  92
KAWAILOA*        N/A     75  66  73 S3G21       N/A
KII*             N/A     81  73  78 E20G25      N/A
MAKUA RANGE*     N/A     90  70  51 NW12G18     N/A  HX  95
OAHU FOREST NW NOT AVBL
SCHOFIELD BRK*   N/A     82  72  69 MISG        N/A
SCHOFIELD S*   NOT AVBL
WAIANAE VLY*   NOT AVBL
KUAOKALA*      NOT AVBL
HONOULIUULI*   NOT AVBL
MOKUOLOE IS*   NOT AVBL
PALEHUA*       NOT AVBL
WAIAWA PHB*    NOT AVBL
$$

HIZ012>013-280500-
MOLOKAI-

CITY           SKY/WX    TMP DP  RH WIND       PRES   REMARKS
MOLOKAI AIRPT  SUNNY     81  68  64 NE16G32   29.98R
KALAUPAPA      NOT AVBL
MAKAPULAPAI*     N/A     81  70  69 E22G30      N/A
MOLOKAI 1*     NOT AVBL
PUU ALII*        N/A     64  62  93 VRB3G12     N/A
$$

HIZ016-280500-
KAHOOLAWE-

CITY           SKY/WX    TMP DP  RH WIND       PRES   REMARKS
KAHOOLAWE*       N/A     73 N/A N/A E1          N/A
HAKIOAWA*        N/A     75  67  76 MISG        N/A
HONOKANAIA*      N/A     82  68  61 NE16G29   29.88S
KANELOA*         N/A     79  68  69 E26G47    30.01S
KEALIALALO*    NOT AVBL
LUA MAKIKA*    NOT AVBL
$$

HIZ014>015-280500-
LANAI-

CITY           SKY/WX    TMP DP  RH WIND       PRES   REMARKS
LANAI CITY     CLOUDY    78  68  71 NE20G25   30.00R
LANAI 1*       NOT AVBL
$$

HIZ017>028-280500-
MAUI-

CITY           SKY/WX    TMP DP  RH WIND       PRES   REMARKS
KAHULUI        MOSUNNY   83  68  60 NE30G37   29.96R
KAPALUA-W MAUI MOSUNNY   81  68  65 NE13G20   29.98
HANA AIRPORT     N/A     81  72  74 E7        30.04S
HANA*            N/A     81 N/A N/A E8          N/A
HALEAKALA SUMM   N/A     50  25  37 E25G51      N/A
MAALAEA BAY*     N/A     82 N/A N/A VRB22G36    N/A
HALEAKALA*     NOT AVBL
KAUPO GAP*       N/A    N/A N/A N/A N9G32       N/A
KULA 1*          N/A     70  55  59 W6G18       N/A
$$

HIZ023>026-280500-
BIG ISLAND OF HAWAII COAST AND LOWER SLOPES-

CITY           SKY/WX    TMP DP  RH WIND       PRES   REMARKS
KAILUA KONA    CLOUDY    84  72  67 S7        29.92R
HILO           CLOUDY    81  69  67 NE13      30.00R
HONOKAA*         N/A     75 N/A N/A VRB1        N/A
KAWAIHAE MWT*    N/A     86 N/A N/A W6          N/A
KAWAIHAE*        N/A     82 N/A N/A W3        29.93S
SOUTH POINT*     N/A     75 N/A N/A N22G33      N/A
UPOLU AIRPORT*   N/A    N/A N/A N/A NE24G31     N/A
KAMUELA*       MOCLDY    70  64  83 NE29      30.05R
HAKALAU*         N/A     63  56  78 NE3         N/A
KALOKO-HONOKO*   N/A     82  70  65 S6        29.92R
PALI 2*          N/A    N/A N/A N/A S20G30      N/A
KEALAKOMO*       N/A     84  64  51 NE20G33     N/A
KAUPULEHU*       N/A     79  63  57 NE14        N/A
KAPAPALA*        N/A     77  69  75 W8G18       N/A
LOWER KAHUKU*    N/A     66  66 100 NE3G12      N/A
PUHE CS*         N/A     86  70  58 SW3         N/A  HX  90
PUHO CS*       NOT AVBL
PTA KEAMUKU*     N/A     70  63  78 CALM        N/A
WAIKOLOA*        N/A     81  64  57 NE13G28     N/A
$$

HIZ027>028-280500-
BIG ISLAND OF HAWAII INTERIOR AND SUMMMITS-

CITY           SKY/WX    TMP DP  RH WIND       PRES   REMARKS
BRADSHAW FIELD SUNNY     68  51  56 SE13G24   30.29
MK VISITOR CEN   N/A     54  28  37 E15         N/A
MAUNA KEA*       N/A     32  21  64 E30         N/A  WCI  18
MAUNA LOA*       N/A    N/A N/A N/A MISG        N/A
MAUNA LOA 1*   NOT AVBL
PTA KIPUKA*      N/A     68  54  60 N3G16       N/A
PTA RANGE 17*    N/A     66  59  77 W7G17       N/A
PTA WEST*        N/A     66  61  82 W7G13       N/A
NENE CABIN*      N/A     63  54  72 E6G13       N/A
AHUMOA*          N/A     66  52  61 S6          N/A
PTA PORTABLE*  NOT AVBL
PUU MALI*        N/A     68  36  30 E14G26      N/A
$$

HIC003-280500-
NORTHWEST ISLANDS-

CITY           SKY/WX    TMP DP  RH WIND       PRES   REMARKS
MIDWAY ISLAND  MOSUNNY   81  68  65 E13       30.08S
MIDWAY NOS*      N/A     79 N/A N/A MISG      30.06F
FRENCH FRIGATE NOT AVBL
$$

PHZ110>124-180-280500-
BUOY REPORTS

STATION/POSITION TIME  TEMP    WIND        PRES    WAVE   SWELL
                       AIR SEA DIR/SP/G            HT/PER HT/DIR
                 (UTC) (F)     (DEG/KT/KT) (MB)    (FT/S) (FT/D)
BUOY 51001       0400   81 82  110/ 12/ 14 1013.6F
BUOY 51101       0350   79 80   80/ 14/ 16 1016.8S   4/ 8   3/120
BUOY 51100       NOT AVBL
BUOY 51002       0350   82 82   80/ 16/ 19 1011.8F   6/ 7   3
BUOY 51003       0350   82 82   70/ 16/ 19 1013.1R   6/ 8   5/ 90
BUOY 51004       0350   80 81   70/ 14/ 17 1013.1R   7/ 7   5/ 80
BARBERS PT BUOY  NOT AVBL
WAIMEA BAY BUOY  0404      80                N/A     3/ 6
KAILUA BAY BUOY  0311      80                N/A     6/ 6   2/110
LANAI BUOY       0415      82                N/A     3/15   2/200
BARBERS PT 2     NOT AVBL
PAUWELA MAUI     0309      80                N/A     6/ 7
HILO             0412      80                N/A     6/ 8   2/130
KANEOHE BAY BUOY 0406      79                N/A     5/ 6
HANALEI KAUAI    NOT AVBL
KAHULUI HARBOR   0400   80 81   30/ 18/ 25 1014.8R
HONOLULU HARBOR  0400   83 81   80/  7/ 17 1015.4R
KILO NALU        NOT AVBL
HILO HARBOR      0400   80 79   50/  4/ 10 1015.4R
MOKUOLOE         0300   81 84   70/ 12/ 17 1015.5F
NAWILIWILI       0400      81                N/A
WHOTS BUOY       NOT AVBL
BUOY 51028       NOT AVBL
$$

......................KEY........................................
  SKY/WX - SKY CONDITIONS/PRESENT WEATHER
  TMP    - TEMPERATURE IN FAHRENHEIT
  DWPT   - DEWPOINT IN FAHRENHEIT
  RH     - RELATIVE HUMIDITY IN PERCENT
  WIND   - DIRECTION AND SPEED /MPH FOR ISLANDS...KTS FOR BUOYS/
  PRES   - MEAN SEA LEVEL PRESSURE IN INCHES OF HG
  VSB    - VISIBILITY IN MILES
  HX     - HEAT INDEX
  WCI    - WIND CHILL INDEX
  VRB    - VARIABLE WIND DIRECTION
  N/A    - NOT AVAILABLE



USA.gov is the U.S. government's official web portal to all federal, state and local government web resources and services.